Weather History for Marfa, TX

Change the Weather History Date:

Sunday, February 3, 2013

  Actual Average Record
Temperature  
Mean Temperature 44 °F -  
Max Temperature 60 °F 57 °F 69 °F (2008)
Min Temperature 28 °F 27 °F 1 °F (2011)
Degree Days  
Heating Degree Days 21    
Moisture  
Dew Point 23 °F    
Average Humidity 46    
Maximum Humidity 69    
Minimum Humidity 25    
Precipitation  
Precipitation 0.00 in - - ()
Sea Level Pressure  
Sea Level Pressure 30.20 in    
Wind  
Wind Speed 6 mph (NE)    
Max Wind Speed 18 mph    
Max Gust Speed 22 mph    
Visibility 10 miles    
Events      
Averages and records for this station are not official NWS values.
T = Trace of Precipitation, MM = Missing Value Source: NWS Daily Summary

Daily Weather History Graph

Daily Weather History Graph

Search for Another Location

Airport:

Trip Planner

Search our weather history database for the weather conditions in past years. The results will help you decide how hot, cold, wet, or windy it might be!

Date:

Astronomy

Feb. 03, 2013 Rise Set
Actual Time 7:45 AM CST 6:34 PM CST
Civil Twilight 7:20 AM CST 6:59 PM CST
Nautical Twilight 6:51 AM CST 7:28 PM CST
Astronomical Twilight 6:23 AM CST 7:56 PM CST
Moon 1:14 AM CST (2/3) 12:16 PM CST (2/3)
Length of Visible Light 11h 39m
Length of Day
10h 49m
Waning Gibbous, 48% of the Moon is Illuminated
Feb 3
Waning Gibbous
Feb 10
New
Feb 17
First Quarter
Feb 25
Full
Mar 4
Last Quarter

Hourly Weather History & Observations

Time (CST) Temp. Windchill Dew Point Humidity Pressure Visibility Wind Dir Wind Speed Gust Speed Precip Events Conditions
12:15 AM 39.2 °F 35.9 °F 19.4 °F 45% 30.36 in 10.0 mi North 4.6 mph - N/A   Clear
12:35 AM 39.2 °F - 21.2 °F 49% 30.37 in 10.0 mi Calm Calm - N/A   Clear
12:55 AM 37.4 °F - 21.2 °F 52% 30.37 in 10.0 mi Calm Calm - N/A   Clear
1:15 AM 35.6 °F 31.7 °F 19.4 °F 52% 30.37 in 10.0 mi West 4.6 mph - N/A   Clear
1:35 AM 35.6 °F 31.7 °F 19.4 °F 52% 30.36 in 10.0 mi NNW 4.6 mph - N/A   Clear
1:55 AM 33.8 °F 27.7 °F 17.6 °F 52% 30.36 in 10.0 mi North 6.9 mph - N/A   Clear
2:15 AM 33.8 °F 27.7 °F 17.6 °F 52% 30.35 in 10.0 mi North 6.9 mph - N/A   Clear
2:35 AM 30.2 °F 22.6 °F 17.6 °F 60% 30.34 in 10.0 mi North 8.1 mph - N/A   Clear
2:55 AM 30.2 °F 23.4 °F 17.6 °F 60% 30.33 in 10.0 mi North 6.9 mph - N/A   Clear
3:15 AM 28.4 °F 21.2 °F 17.6 °F 64% 30.32 in 10.0 mi North 6.9 mph - N/A   Clear
3:35 AM 28.4 °F 21.2 °F 17.6 °F 64% 30.32 in 10.0 mi North 6.9 mph - N/A   Clear
3:55 AM 28.4 °F 23.3 °F 17.6 °F 64% 30.31 in 10.0 mi North 4.6 mph - N/A   Clear
4:15 AM 28.4 °F 21.2 °F 17.6 °F 64% 30.31 in 10.0 mi North 6.9 mph - N/A   Clear
4:35 AM 30.2 °F 25.4 °F 19.4 °F 64% 30.30 in 10.0 mi NE 4.6 mph - N/A   Clear
4:55 AM 32.0 °F 26.4 °F 19.4 °F 60% 30.29 in 10.0 mi NNE 5.8 mph - N/A   Clear
5:15 AM 33.8 °F 29.6 °F 21.2 °F 60% 30.29 in 10.0 mi North 4.6 mph - N/A   Clear
5:35 AM 32.0 °F 27.5 °F 21.2 °F 64% 30.28 in 10.0 mi NNW 4.6 mph - N/A   Clear
5:55 AM 30.2 °F 24.3 °F 19.4 °F 64% 30.28 in 10.0 mi NNW 5.8 mph - N/A   Clear
6:15 AM 30.2 °F 24.3 °F 19.4 °F 64% 30.29 in 10.0 mi NNW 5.8 mph - N/A   Clear
6:35 AM 30.2 °F 24.3 °F 19.4 °F 64% 30.29 in 10.0 mi NNW 5.8 mph - N/A   Clear
6:55 AM 30.2 °F 24.3 °F 21.2 °F 69% 30.29 in 10.0 mi North 5.8 mph - N/A   Clear
7:15 AM 32.0 °F - 21.2 °F 64% 30.29 in 10.0 mi Calm Calm - N/A   Clear
7:35 AM 30.2 °F - 19.4 °F 64% 30.29 in 10.0 mi Calm Calm - N/A   Clear
7:55 AM 30.2 °F 26.7 °F 19.4 °F 64% 30.29 in 10.0 mi North 3.5 mph - N/A   Clear
8:15 AM 30.2 °F 24.3 °F 19.4 °F 64% 30.29 in 10.0 mi NNW 5.8 mph - N/A   Clear
8:35 AM 32.0 °F 28.7 °F 21.2 °F 64% 30.30 in 10.0 mi North 3.5 mph - N/A   Clear
8:55 AM 35.6 °F 31.7 °F 23.0 °F 60% 30.29 in 10.0 mi North 4.6 mph - N/A   Clear
9:15 AM 41.0 °F 37.1 °F 24.8 °F 53% 30.28 in 10.0 mi North 5.8 mph - N/A   Clear
9:35 AM 44.6 °F 42.2 °F 23.0 °F 43% 30.28 in 10.0 mi North 4.6 mph - N/A   Clear
9:55 AM 46.4 °F 45.2 °F 23.0 °F 40% 30.27 in 10.0 mi NE 3.5 mph - N/A   Partly Cloudy
10:15 AM 48.2 °F - 24.8 °F 40% 30.28 in 10.0 mi Calm Calm - N/A   Partly Cloudy
10:35 AM 48.2 °F - 24.8 °F 40% 30.28 in 10.0 mi South 5.8 mph - N/A   Clear
10:55 AM 51.8 °F - 24.8 °F 35% 30.28 in 10.0 mi South 5.8 mph - N/A   Partly Cloudy
11:15 AM 53.6 °F - 24.8 °F 33% 30.28 in 10.0 mi South 6.9 mph - N/A   Clear
11:35 AM 53.6 °F - 24.8 °F 33% 30.26 in 10.0 mi South 11.5 mph - N/A   Clear
11:55 AM 55.4 °F - 24.8 °F 31% 30.25 in 10.0 mi SE 11.5 mph - N/A   Clear
12:15 PM 57.2 °F - 26.6 °F 31% 30.24 in 10.0 mi South 13.8 mph - N/A   Clear
12:35 PM 57.2 °F - 24.8 °F 29% 30.23 in 10.0 mi SSE 15.0 mph 19.6 mph N/A   Clear
12:55 PM 59.0 °F - 24.8 °F 27% 30.21 in 10.0 mi South 18.4 mph 21.9 mph N/A   Clear
1:15 PM 60.8 °F - 26.6 °F 27% 30.19 in 10.0 mi SSE 15.0 mph 20.7 mph N/A   Clear
1:35 PM 60.8 °F - 24.8 °F 25% 30.17 in 10.0 mi SSE 12.7 mph - N/A   Clear
1:55 PM 57.2 °F - 23.0 °F 27% 30.15 in 10.0 mi South 12.7 mph - N/A   Mostly Cloudy
2:15 PM 59.0 °F - 23.0 °F 25% 30.13 in 10.0 mi South 17.3 mph - N/A   Overcast
2:35 PM 57.2 °F - 23.0 °F 27% 30.12 in 10.0 mi South 13.8 mph - N/A   Overcast
2:55 PM 57.2 °F - 23.0 °F 27% 30.13 in 10.0 mi South 13.8 mph - N/A   Overcast
3:15 PM 57.2 °F - 23.0 °F 27% 30.13 in 10.0 mi South 12.7 mph - N/A   Overcast
3:35 PM 57.2 °F - 24.8 °F 29% 30.12 in 10.0 mi South 11.5 mph - N/A   Overcast
3:55 PM 55.4 °F - 24.8 °F 31% 30.11 in 10.0 mi SSE 9.2 mph - N/A   Overcast
4:15 PM 55.4 °F - 24.8 °F 31% 30.10 in 10.0 mi SSE 10.4 mph - N/A   Overcast
4:35 PM 55.4 °F - 24.8 °F 31% 30.09 in 10.0 mi SE 9.2 mph - N/A   Overcast
4:55 PM 55.4 °F - 24.8 °F 31% 30.08 in 10.0 mi SSE 9.2 mph - N/A   Overcast
5:15 PM 55.4 °F - 24.8 °F 31% 30.06 in 10.0 mi SE 9.2 mph - N/A   Overcast
5:35 PM 55.4 °F - 24.8 °F 31% 30.07 in 10.0 mi SSE 8.1 mph - N/A   Overcast
5:55 PM 55.4 °F - 24.8 °F 31% 30.07 in 10.0 mi SSE 10.4 mph - N/A   Overcast
6:15 PM 53.6 °F - 24.8 °F 33% 30.06 in 10.0 mi SSE 9.2 mph - N/A   Mostly Cloudy
6:35 PM 53.6 °F - 24.8 °F 33% 30.06 in 10.0 mi SSE 6.9 mph - N/A   Scattered Clouds
6:55 PM 53.6 °F - 24.8 °F 33% 30.07 in 10.0 mi Calm Calm - N/A   Mostly Cloudy
7:15 PM 51.8 °F - 24.8 °F 35% 30.07 in 10.0 mi ENE 3.5 mph - N/A   Overcast
7:35 PM 51.8 °F - 26.6 °F 38% 30.07 in 10.0 mi Calm Calm - N/A   Overcast
7:55 PM 51.8 °F - 26.6 °F 38% 30.07 in 10.0 mi Calm Calm - N/A   Overcast
8:15 PM 50.0 °F - 28.4 °F 43% 30.07 in 10.0 mi Calm Calm - N/A   Overcast
8:35 PM 48.2 °F - 28.4 °F 46% 30.07 in 10.0 mi NNW 3.5 mph - N/A   Mostly Cloudy
8:55 PM 46.4 °F 42.9 °F 28.4 °F 50% 30.07 in 10.0 mi NW 6.9 mph - N/A   Scattered Clouds
9:15 PM 46.4 °F - 28.4 °F 50% 30.06 in 10.0 mi Calm Calm - N/A   Mostly Cloudy
9:35 PM 46.4 °F 43.5 °F 26.6 °F 46% 30.07 in 10.0 mi NW 5.8 mph - N/A   Scattered Clouds
9:55 PM 44.6 °F - 28.4 °F 53% 30.07 in 10.0 mi Calm Calm - N/A   Mostly Cloudy
10:15 PM 44.6 °F 41.4 °F 26.6 °F 49% 30.07 in 10.0 mi NNW 5.8 mph - N/A   Scattered Clouds
10:35 PM 42.8 °F - 26.6 °F 53% 30.07 in 10.0 mi Calm Calm - N/A   Mostly Cloudy
10:55 PM 42.8 °F 38.6 °F 26.6 °F 53% 30.07 in 10.0 mi ENE 6.9 mph - N/A   Overcast
11:15 PM 44.6 °F 39.2 °F 28.4 °F 53% 30.07 in 10.0 mi North 10.4 mph - N/A   Overcast
11:35 PM 44.6 °F 42.2 °F 28.4 °F 53% 30.06 in 10.0 mi ENE 4.6 mph - N/A   Overcast
11:55 PM 46.4 °F 42.4 °F 28.4 °F 50% 30.07 in 10.0 mi North 8.1 mph - N/A   Overcast